Location: Mountain Grove
(34.0887°N, 86.6172°W)
Time: 00:11:33
(UTC+00:00)

Cosmos 2058 - Pass Details

Date: 14 July 2020
Orbit: 562 x 584 km, 82.5° (Epoch: 12 August)

Event Time Altitude Azimuth Distance (km) Brightness Sun altitude
Exits shadow 02:33:46 31° 105° (ESE) 1,010 3.7 -17.0°
Maximum altitude 02:34:12 32° 91° (E) 991 3.7 -17.0°
Drops below altitude 10° 02:37:53 10° 28° (NNE) 1,873 5.7 -17.6°
Sets 02:40:13 0° 18° (NNE) 2,771 6.7 -18.0°
